| time (UTC) | temp F | wind direction | speed MPH | gust MPH | rain 1hr in | rain 24hr in | rain mn in | humidity % | barometer mb |
| 20260510102052 | 64 | 69 | 7.0 | 10.0 | 0.00 | 0.03 | 0.03 | 78 | 1012.8 |
| 20260510101600 | 64 | 65 | 9.0 | 14.0 | 0.00 | 0.03 | 0.03 | 78 | 1012.8 |
| 20260510101052 | 64 | 62 | 7.0 | 13.0 | 0.00 | 0.03 | 0.03 | 78 | 1012.9 |
| 20260510100552 | 64 | 65 | 7.0 | 12.0 | 0.00 | 0.03 | 0.03 | 76 | 1012.9 |
| 20260510100052 | 65 | 91 | 6.0 | 10.0 | 0.00 | 0.03 | 0.03 | 75 | 1013.0 |
| 20260510095553 | 65 | 69 | 5.0 | 14.0 | 0.00 | 0.03 | 0.03 | 77 | 1013.0 |
| 20260510094055 | 65 | 78 | 9.0 | 14.0 | 0.00 | 0.03 | 0.03 | 76 | 1013.0 |
| 20260510093552 | 65 | 79 | 9.0 | 13.0 | 0.00 | 0.03 | 0.03 | 77 | 1013.0 |
| 20260510093057 | 66 | 78 | 7.0 | 12.0 | 0.00 | 0.03 | 0.03 | 80 | 1013.0 |
| 20260510092552 | 66 | 76 | 5.0 | 12.0 | 0.00 | 0.03 | 0.03 | 81 | 1013.0 |
| 20260510092052 | 65 | 86 | 6.0 | 12.0 | 0.00 | 0.03 | 0.03 | 81 | 1013.0 |
| 20260510091552 | 65 | 74 | 7.0 | 12.0 | 0.00 | 0.03 | 0.03 | 82 | 1013.1 |
| 20260510091107 | 65 | 85 | 7.0 | 10.0 | 0.00 | 0.03 | 0.03 | 83 | 1013.2 |
| 20260510090552 | 65 | 92 | 5.0 | 10.0 | 0.00 | 0.03 | 0.03 | 83 | 1013.2 |
| 20260510090053 | 65 | 85 | 7.0 | 10.0 | 0.00 | 0.03 | 0.03 | 84 | 1013.2 |
| 20260510085052 | 64 | 72 | 6.0 | 8.0 | 0.00 | 0.03 | 0.03 | 86 | 1013.2 |
| 20260510084553 | 64 | 86 | 5.0 | 9.0 | 0.00 | 0.03 | 0.03 | 87 | 1013.2 |
| 20260510084052 | 64 | 70 | 5.0 | 8.0 | 0.00 | 0.03 | 0.03 | 87 | 1013.2 |
| 20260510083552 | 64 | 81 | 6.0 | 8.0 | 0.00 | 0.03 | 0.03 | 87 | 1013.2 |
| 20260510083052 | 64 | 70 | 6.0 | 10.0 | 0.00 | 0.03 | 0.03 | 87 | 1013.1 |
| 20260510082552 | 63 | 78 | 6.0 | 9.0 | 0.00 | 0.03 | 0.03 | 87 | 1013.1 |
| 20260510081552 | 63 | 80 | 5.0 | 8.0 | 0.00 | 0.03 | 0.03 | 88 | 1013.1 |
| 20260510081053 | 63 | 93 | 6.0 | 8.0 | 0.00 | 0.03 | 0.03 | 88 | 1013.1 |
| 20260510080055 | 64 | 67 | 3.0 | 6.0 | 0.00 | 0.03 | 0.03 | 89 | 1013.1 |
| 20260510075552 | 64 | 67 | 4.0 | 6.0 | 0.00 | 0.03 | 0.03 | 88 | 1013.0 |
| 20260510075052 | 63 | 82 | 4.0 | 6.0 | 0.00 | 0.03 | 0.03 | 89 | 1013.0 |
| 20260510074553 | 63 | 84 | 3.0 | 8.0 | 0.00 | 0.03 | 0.03 | 89 | 1013.0 |
| 20260510074055 | 63 | 101 | 4.0 | 7.0 | 0.01 | 0.03 | 0.03 | 90 | 1012.9 |
| 20260510073052 | 63 | 79 | 3.0 | 7.0 | 0.01 | 0.03 | 0.03 | 92 | 1012.8 |
| 20260510072552 | 62 | 78 | 5.0 | 7.0 | 0.03 | 0.03 | 0.03 | 92 | 1012.7 |
| 20260510072051 | 62 | 67 | 5.0 | 9.0 | 0.03 | 0.03 | 0.03 | 92 | 1012.6 |
| 20260510071107 | 62 | 77 | 10.0 | 13.0 | 0.03 | 0.03 | 0.03 | 93 | 1012.6 |
| 20260510065552 | 62 | 75 | 5.0 | 9.0 | 0.03 | 0.03 | 0.03 | 93 | 1012.5 |
| 20260510064552 | 62 | 73 | 9.0 | 13.0 | 0.03 | 0.03 | 0.03 | 92 | 1012.5 |
| 20260510064052 | 62 | 91 | 7.0 | 12.0 | 0.02 | 0.02 | 0.02 | 91 | 1012.5 |
| 20260510063552 | 62 | 77 | 10.0 | 13.0 | 0.02 | 0.02 | 0.02 | 90 | 1012.5 |
| 20260510063053 | 62 | 73 | 8.0 | 13.0 | 0.02 | 0.02 | 0.02 | 89 | 1012.5 |
| 20260510062552 | 63 | 80 | 7.0 | 14.0 | 0.01 | 0.01 | 0.01 | 87 | 1012.5 |
| 20260510062052 | 63 | 89 | 7.0 | 8.0 | 0.00 | 0.00 | 0.00 | 87 | 1012.5 |
| 20260510061552 | 63 | 83 | 6.0 | 13.0 | 0.00 | 0.00 | 0.00 | 87 | 1012.5 |
| 20260510061051 | 63 | 90 | 8.0 | 13.0 | 0.00 | 0.00 | 0.00 | 86 | 1012.7 |
| 20260510060052 | 62 | 91 | 6.0 | 9.0 | 0.00 | 0.00 | 0.00 | 85 | 1012.6 |
| 20260510055552 | 62 | 76 | 6.0 | 10.0 | 0.00 | 0.00 | 0.00 | 85 | 1012.6 |
| 20260510054552 | 62 | 85 | 3.0 | 6.0 | 0.00 | 0.00 | 0.00 | 88 | 1012.7 |
| 20260510054051 | 61 | 94 | 3.0 | 7.0 | 0.00 | 0.00 | 0.00 | 88 | 1012.7 |
| 20260510053553 | 61 | 122 | 3.0 | 5.0 | 0.00 | 0.00 | 0.00 | 88 | 1012.6 |
| 20260510053051 | 60 | 100 | 2.0 | 5.0 | 0.00 | 0.00 | 0.00 | 88 | 1012.6 |
| 20260510052551 | 60 | 108 | 2.0 | 5.0 | 0.00 | 0.00 | 0.00 | 88 | 1012.6 |
| 20260510052051 | 60 | 107 | 4.0 | 7.0 | 0.00 | 0.00 | 0.00 | 88 | 1012.6 |
| 20260510051552 | 60 | 111 | 3.0 | 7.0 | 0.00 | 0.00 | 0.00 | 88 | 1012.7 |
| 20260510051052 | 60 | 101 | 2.0 | 5.0 | 0.00 | 0.00 | 0.00 | 87 | 1012.7 |
| 20260510050553 | 61 | 104 | 3.0 | 5.0 | 0.00 | 0.00 | 0.00 | 86 | 1012.7 |
| 20260510050051 | 61 | 132 | 2.0 | 2.0 | 0.00 | 0.00 | 0.00 | 85 | 1012.7 |
| 20260510045551 | 61 | 177 | 2.0 | 3.0 | 0.00 | 0.00 | 0.00 | 85 | 1012.6 |
| 20260510044551 | 61 | 202 | 2.0 | 3.0 | 0.00 | 0.00 | 0.00 | 85 | 1012.6 |
| 20260510044051 | 60 | 56 | 1.0 | 2.0 | 0.00 | 0.00 | 0.00 | 85 | 1012.6 |
| 20260510043551 | 60 | 47 | 0.0 | 1.0 | 0.00 | 0.00 | 0.00 | 86 | 1012.6 |
| 20260510043051 | 60 | 47 | 0.0 | 0.0 | 0.00 | 0.00 | 0.00 | 86 | 1012.5 |
| 20260510042552 | 60 | 47 | 0.0 | 0.0 | 0.00 | 0.00 | 0.00 | 86 | 1012.5 |
| 20260510042051 | 60 | 47 | 0.0 | 0.0 | 0.00 | 0.00 | 0.00 | 86 | 1012.4 |
| 20260510041551 | 60 | 47 | 0.0 | 1.0 | 0.00 | 0.00 | 0.00 | 86 | 1012.4 |
| 20260510041051 | 60 | 50 | 1.0 | 2.0 | 0.00 | 0.00 | 0.00 | 86 | 1012.5 |
| 20260510040051 | 60 | 87 | 2.0 | 5.0 | 0.00 | 0.00 | 0.00 | 86 | 1012.4 |
| 20260510035552 | 60 | 101 | 3.0 | 5.0 | 0.00 | 0.00 | 0.00 | 86 | 1012.4 |
| 20260510035051 | 60 | 82 | 3.0 | 7.0 | 0.00 | 0.00 | 0.00 | 85 | 1012.2 |
| 20260510034551 | 60 | 63 | 3.0 | 5.0 | 0.00 | 0.00 | 0.00 | 85 | 1012.3 |
| 20260510034051 | 60 | 66 | 4.0 | 6.0 | 0.00 | 0.00 | 0.00 | 85 | 1012.3 |
| 20260510033051 | 60 | 58 | 3.0 | 5.0 | 0.00 | 0.00 | 0.00 | 85 | 1012.4 |
| 20260510032551 | 60 | 60 | 3.0 | 5.0 | 0.00 | 0.00 | 0.00 | 85 | 1012.4 |
| 20260510032051 | 60 | 75 | 3.0 | 7.0 | 0.00 | 0.00 | 0.00 | 85 | 1012.5 |
| 20260510031551 | 60 | 64 | 3.0 | 5.0 | 0.00 | 0.00 | 0.00 | 84 | 1012.5 |
| 20260510031051 | 60 | 69 | 3.0 | 6.0 | 0.00 | 0.00 | 0.00 | 84 | 1012.6 |
| 20260510030551 | 60 | 69 | 2.0 | 5.0 | 0.00 | 0.00 | 0.00 | 84 | 1012.6 |
| 20260510030051 | 60 | 57 | 3.0 | 3.0 | 0.00 | 0.00 | 0.00 | 84 | 1012.7 |
| 20260510025551 | 60 | 48 | 2.0 | 3.0 | 0.00 | 0.00 | 0.00 | 84 | 1012.8 |
| 20260510025051 | 60 | 54 | 2.0 | 3.0 | 0.00 | 0.00 | 0.00 | 84 | 1012.9 |
| 20260510024551 | 60 | 63 | 2.0 | 3.0 | 0.00 | 0.00 | 0.00 | 84 | 1012.9 |
| 20260510024051 | 60 | 47 | 2.0 | 3.0 | 0.00 | 0.00 | 0.00 | 83 | 1012.9 |
| 20260510023551 | 61 | 40 | 2.0 | 3.0 | 0.00 | 0.00 | 0.00 | 83 | 1013.0 |
| 20260510023052 | 61 | 43 | 3.0 | 3.0 | 0.00 | 0.00 | 0.00 | 83 | 1013.1 |
| 20260510022551 | 61 | 46 | 3.0 | 3.0 | 0.00 | 0.00 | 0.00 | 82 | 1013.1 |
| 20260510022051 | 61 | 47 | 2.0 | 3.0 | 0.00 | 0.00 | 0.00 | 82 | 1013.2 |
| 20260510021051 | 61 | 24 | 1.0 | 3.0 | 0.00 | 0.00 | 0.00 | 81 | 1013.2 |
| 20260510020551 | 61 | 52 | 2.0 | 3.0 | 0.00 | 0.00 | 0.00 | 81 | 1013.3 |
| 20260510015553 | 61 | 62 | 3.0 | 5.0 | 0.00 | 0.00 | 0.00 | 80 | 1013.5 |
| 20260510015051 | 61 | 60 | 3.0 | 3.0 | 0.00 | 0.00 | 0.00 | 80 | 1013.5 |
| 20260510014556 | 61 | 45 | 3.0 | 5.0 | 0.00 | 0.00 | 0.00 | 81 | 1013.6 |
| 20260510014051 | 61 | 47 | 2.0 | 5.0 | 0.00 | 0.00 | 0.00 | 80 | 1013.6 |
| 20260510013553 | 61 | 59 | 2.0 | 5.0 | 0.00 | 0.00 | 0.00 | 80 | 1013.7 |
| 20260510013052 | 61 | 70 | 2.0 | 3.0 | 0.00 | 0.00 | 0.00 | 80 | 1013.7 |
| 20260510012551 | 61 | 73 | 2.0 | 5.0 | 0.00 | 0.00 | 0.00 | 79 | 1013.8 |
| 20260510012051 | 62 | 65 | 3.0 | 5.0 | 0.00 | 0.00 | 0.00 | 78 | 1013.8 |
| 20260510011551 | 62 | 70 | 3.0 | 6.0 | 0.00 | 0.00 | 0.00 | 78 | 1013.8 |
| 20260510011051 | 62 | 66 | 2.0 | 5.0 | 0.00 | 0.00 | 0.00 | 77 | 1013.9 |
| 20260510010553 | 62 | 72 | 2.0 | 3.0 | 0.00 | 0.00 | 0.00 | 77 | 1013.9 |
| 20260510010051 | 62 | 80 | 3.0 | 6.0 | 0.00 | 0.00 | 0.00 | 76 | 1013.8 |
| 20260510005550 | 62 | 72 | 3.0 | 7.0 | 0.00 | 0.00 | 0.00 | 76 | 1013.8 |
| 20260510004551 | 62 | 68 | 5.0 | 8.0 | 0.00 | 0.00 | 0.00 | 75 | 1013.8 |
| 20260510004051 | 62 | 65 | 4.0 | 8.0 | 0.00 | 0.00 | 0.00 | 74 | 1013.8 |
| 20260510003554 | 62 | 68 | 4.0 | 7.0 | 0.00 | 0.00 | 0.00 | 74 | 1013.8 |
| 20260510003051 | 62 | 69 | 3.0 | 7.0 | 0.00 | 0.00 | 0.00 | 75 | 1013.8 |
| 20260510002552 | 62 | 65 | 3.0 | 5.0 | 0.00 | 0.00 | 0.00 | 75 | 1013.8 |
| 20260510002051 | 62 | 59 | 3.0 | 5.0 | 0.00 | 0.00 | 0.00 | 76 | 1013.8 |
| 20260510001051 | 62 | 69 | 3.0 | 5.0 | 0.00 | 0.00 | 0.00 | 77 | 1014.0 |
| 20260510000551 | 62 | 62 | 3.0 | 5.0 | 0.00 | 0.00 | 0.00 | 77 | 1014.0 |
| 20260509235551 | 62 | 67 | 3.0 | 5.0 | 0.00 | 0.00 | 0.00 | 78 | 1014.1 |
| 20260509235051 | 62 | 53 | 4.0 | 5.0 | 0.00 | 0.00 | 0.00 | 78 | 1014.1 |
| 20260509234050 | 62 | 53 | 3.0 | 6.0 | 0.00 | 0.00 | 0.00 | 78 | 1014.2 |
| 20260509233051 | 62 | 70 | 5.0 | 5.0 | 0.00 | 0.00 | 0.00 | 78 | 1014.3 |
| 20260509232558 | 62 | 58 | 3.0 | 5.0 | 0.00 | 0.00 | 0.00 | 79 | 1014.3 |
| 20260509232050 | 62 | 54 | 4.0 | 6.0 | 0.00 | 0.00 | 0.00 | 79 | 1014.3 |
| 20260509231550 | 62 | 47 | 5.0 | 7.0 | 0.00 | 0.00 | 0.00 | 79 | 1014.4 |
| 20260509230550 | 62 | 49 | 4.0 | 5.0 | 0.00 | 0.00 | 0.00 | 79 | 1014.4 |
| 20260509230105 | 62 | 52 | 2.0 | 3.0 | 0.00 | 0.00 | 0.00 | 79 | 1014.4 |
| 20260509225551 | 62 | 64 | 3.0 | 7.0 | 0.00 | 0.00 | 0.00 | 78 | 1014.3 |
| 20260509225051 | 63 | 48 | 5.0 | 7.0 | 0.00 | 0.00 | 0.00 | 78 | 1014.3 |
| 20260509224551 | 63 | 71 | 2.0 | 5.0 | 0.00 | 0.00 | 0.00 | 78 | 1014.3 |
| 20260509224050 | 63 | 51 | 6.0 | 8.0 | 0.00 | 0.00 | 0.00 | 78 | 1014.3 |
| 20260509223550 | 63 | 43 | 4.0 | 6.0 | 0.00 | 0.00 | 0.00 | 78 | 1014.3 |
| 20260509223050 | 63 | 79 | 2.0 | 3.0 | 0.00 | 0.00 | 0.00 | 77 | 1014.1 |
| 20260509222552 | 63 | 106 | 1.0 | 3.0 | 0.00 | 0.00 | 0.00 | 78 | 1014.1 |
| 20260509222050 | 63 | 85 | 1.0 | 2.0 | 0.00 | 0.00 | 0.00 | 77 | 1014.1 |
| 20260509221551 | 64 | 85 | 1.0 | 2.0 | 0.00 | 0.00 | 0.00 | 77 | 1014.1 |
| 20260509221050 | 64 | 85 | 1.0 | 2.0 | 0.00 | 0.00 | 0.00 | 77 | 1014.0 |
| 20260509220551 | 64 | 100 | 2.0 | 2.0 | 0.00 | 0.00 | 0.00 | 77 | 1014.0 |
| 20260509220050 | 64 | 105 | 1.0 | 2.0 | 0.00 | 0.00 | 0.00 | 77 | 1014.0 |
| 20260509215550 | 64 | 105 | 2.0 | 3.0 | 0.00 | 0.00 | 0.00 | 76 | 1014.0 |
| 20260509215050 | 65 | 105 | 2.0 | 3.0 | 0.00 | 0.00 | 0.00 | 75 | 1014.0 |
| 20260509214550 | 65 | 105 | 1.0 | 2.0 | 0.00 | 0.00 | 0.00 | 73 | 1014.0 |
| 20260509214050 | 65 | 106 | 2.0 | 3.0 | 0.00 | 0.00 | 0.00 | 72 | 1014.0 |
| 20260509213051 | 66 | 122 | 2.0 | 6.0 | 0.00 | 0.00 | 0.00 | 71 | 1014.0 |
| 20260509212550 | 66 | 134 | 2.0 | 5.0 | 0.00 | 0.00 | 0.00 | 71 | 1014.0 |
| 20260509212051 | 66 | 165 | 3.0 | 3.0 | 0.00 | 0.00 | 0.00 | 72 | 1014.0 |
| 20260509211550 | 66 | 148 | 3.0 | 7.0 | 0.00 | 0.00 | 0.00 | 73 | 1014.0 |
| 20260509210550 | 65 | 117 | 2.0 | 3.0 | 0.00 | 0.00 | 0.00 | 74 | 1014.0 |
| 20260509205550 | 66 | 127 | 2.0 | 3.0 | 0.00 | 0.00 | 0.00 | 72 | 1013.9 |
| 20260509205050 | 66 | 92 | 2.0 | 3.0 | 0.00 | 0.00 | 0.00 | 72 | 1013.9 |
| 20260509204552 | 67 | 104 | 2.0 | 3.0 | 0.00 | 0.00 | 0.00 | 72 | 1013.9 |
| 20260509204051 | 67 | 106 | 2.0 | 3.0 | 0.00 | 0.00 | 0.00 | 70 | 1013.9 |
| 20260509203550 | 67 | 106 | 1.0 | 3.0 | 0.00 | 0.00 | 0.00 | 69 | 1013.9 |
| 20260509203052 | 67 | 106 | 2.0 | 3.0 | 0.00 | 0.00 | 0.00 | 70 | 1013.9 |
| 20260509202550 | 67 | 82 | 2.0 | 3.0 | 0.00 | 0.00 | 0.00 | 71 | 1013.8 |
| 20260509202050 | 67 | 101 | 1.0 | 2.0 | 0.00 | 0.00 | 0.00 | 71 | 1013.8 |
| 20260509201550 | 67 | 78 | 2.0 | 3.0 | 0.00 | 0.00 | 0.00 | 71 | 1013.8 |
| 20260509201051 | 67 | 44 | 2.0 | 2.0 | 0.00 | 0.00 | 0.00 | 72 | 1013.8 |
| 20260509200550 | 67 | 44 | 1.0 | 3.0 | 0.00 | 0.00 | 0.00 | 73 | 1013.8 |
| 20260509200051 | 68 | 44 | 0.0 | 1.0 | 0.00 | 0.00 | 0.00 | 72 | 1013.8 |
| 20260509195049 | 67 | 38 | 2.0 | 3.0 | 0.00 | 0.00 | 0.00 | 73 | 1013.7 |
| 20260509194550 | 67 | 55 | 1.0 | 2.0 | 0.00 | 0.00 | 0.00 | 72 | 1013.6 |
| 20260509194049 | 67 | 55 | 1.0 | 1.0 | 0.00 | 0.00 | 0.00 | 72 | 1013.5 |
| 20260509193605 | 67 | 55 | 2.0 | 2.0 | 0.00 | 0.00 | 0.00 | 71 | 1013.5 |
| 20260509193050 | 68 | 55 | 2.0 | 2.0 | 0.00 | 0.00 | 0.00 | 71 | 1013.4 |
| 20260509192550 | 68 | 55 | 2.0 | 2.0 | 0.00 | 0.00 | 0.00 | 70 | 1013.3 |
| 20260509192049 | 68 | 55 | 0.0 | 0.0 | 0.00 | 0.00 | 0.00 | 69 | 1013.3 |
| 20260509191551 | 68 | 55 | 0.0 | 0.0 | 0.00 | 0.00 | 0.00 | 68 | 1013.1 |
| 20260509191050 | 68 | 55 | 0.0 | 0.0 | 0.00 | 0.00 | 0.00 | 67 | 1013.1 |
| 20260509190049 | 69 | 54 | 1.0 | 2.0 | 0.00 | 0.00 | 0.00 | 67 | 1013.1 |
| 20260509185552 | 69 | 54 | 0.0 | 0.0 | 0.00 | 0.00 | 0.00 | 67 | 1013.1 |
| 20260509185050 | 70 | 54 | 0.0 | 0.0 | 0.00 | 0.00 | 0.00 | 66 | 1013.0 |
| 20260509184550 | 70 | 54 | 0.0 | 0.0 | 0.00 | 0.00 | 0.00 | 64 | 1013.0 |
| 20260509184050 | 70 | 54 | 1.0 | 2.0 | 0.00 | 0.00 | 0.00 | 64 | 1013.0 |
| 20260509183049 | 71 | 54 | 1.0 | 2.0 | 0.00 | 0.00 | 0.00 | 63 | 1012.9 |
| 20260509182550 | 71 | 54 | 1.0 | 2.0 | 0.00 | 0.00 | 0.00 | 63 | 1012.9 |
| 20260509182050 | 72 | 54 | 1.0 | 1.0 | 0.00 | 0.00 | 0.00 | 62 | 1012.9 |
| 20260509181549 | 72 | 43 | 1.0 | 1.0 | 0.00 | 0.00 | 0.00 | 61 | 1012.9 |
| 20260509180550 | 73 | 43 | 1.0 | 3.0 | 0.00 | 0.00 | 0.00 | 63 | 1012.8 |
| 20260509180050 | 73 | 102 | 2.0 | 3.0 | 0.00 | 0.00 | 0.00 | 62 | 1012.9 |
| 20260509175550 | 73 | 102 | 1.0 | 2.0 | 0.00 | 0.00 | 0.00 | 59 | 1012.9 |
| 20260509174550 | 74 | 103 | 1.0 | 2.0 | 0.00 | 0.00 | 0.00 | 57 | 1012.9 |
| 20260509174052 | 74 | 133 | 1.0 | 2.0 | 0.00 | 0.00 | 0.00 | 56 | 1012.9 |
| 20260509173549 | 75 | 133 | 1.0 | 2.0 | 0.00 | 0.00 | 0.00 | 55 | 1012.9 |
| 20260509173050 | 75 | 133 | 1.0 | 2.0 | 0.00 | 0.00 | 0.00 | 56 | 1013.0 |
| 20260509172550 | 75 | 133 | 0.0 | 1.0 | 0.00 | 0.00 | 0.00 | 57 | 1013.0 |
| 20260509172052 | 76 | 133 | 1.0 | 2.0 | 0.00 | 0.00 | 0.00 | 54 | 1013.0 |
| 20260509171549 | 76 | 139 | 2.0 | 3.0 | 0.00 | 0.00 | 0.00 | 53 | 1013.0 |
| 20260509171050 | 76 | 105 | 1.0 | 3.0 | 0.00 | 0.00 | 0.00 | 51 | 1013.1 |
| 20260509170549 | 76 | 116 | 3.0 | 5.0 | 0.00 | 0.00 | 0.00 | 52 | 1013.1 |
| 20260509170052 | 77 | 127 | 1.0 | 3.0 | 0.00 | 0.00 | 0.00 | 51 | 1013.2 |
| 20260509165549 | 77 | 179 | 1.0 | 3.0 | 0.00 | 0.00 | 0.00 | 50 | 1013.2 |
| 20260509165050 | 77 | 199 | 3.0 | 8.0 | 0.00 | 0.00 | 0.00 | 51 | 1013.2 |
| 20260509164549 | 77 | 78 | 1.0 | 2.0 | 0.00 | 0.00 | 0.00 | 51 | 1013.3 |
| 20260509163049 | 78 | 97 | 2.0 | 5.0 | 0.00 | 0.00 | 0.00 | 50 | 1013.4 |
| 20260509162549 | 78 | 215 | 4.0 | 5.0 | 0.00 | 0.00 | 0.00 | 49 | 1013.4 |
| 20260509162050 | 78 | 183 | 2.0 | 6.0 | 0.00 | 0.00 | 0.00 | 49 | 1013.4 |
| 20260509161549 | 78 | 171 | 2.0 | 6.0 | 0.00 | 0.00 | 0.00 | 51 | 1013.4 |
| 20260509161049 | 78 | 118 | 2.0 | 5.0 | 0.00 | 0.00 | 0.00 | 50 | 1013.4 |
| 20260509160549 | 78 | 159 | 2.0 | 7.0 | 0.00 | 0.00 | 0.00 | 51 | 1013.5 |
| 20260509155549 | 78 | 138 | 4.0 | 5.0 | 0.00 | 0.00 | 0.00 | 50 | 1013.5 |
| 20260509155049 | 78 | 173 | 2.0 | 6.0 | 0.00 | 0.00 | 0.00 | 50 | 1013.4 |
| 20260509153549 | 78 | 152 | 1.0 | 5.0 | 0.00 | 0.00 | 0.00 | 49 | 1013.4 |
| 20260509153049 | 78 | 115 | 2.0 | 5.0 | 0.00 | 0.00 | 0.00 | 50 | 1013.4 |
| 20260509152549 | 79 | 122 | 5.0 | 5.0 | 0.00 | 0.00 | 0.00 | 50 | 1013.4 |
| 20260509152049 | 79 | 122 | 2.0 | 5.0 | 0.00 | 0.00 | 0.00 | 50 | 1013.5 |
| 20260509151549 | 78 | 261 | 5.0 | 8.0 | 0.00 | 0.00 | 0.00 | 49 | 1013.5 |
| 20260509151049 | 79 | 214 | 2.0 | 7.0 | 0.00 | 0.00 | 0.00 | 50 | 1013.4 |
| 20260509145049 | 79 | 206 | 2.0 | 3.0 | 0.00 | 0.00 | 0.00 | 45 | 1013.4 |
| 20260509144551 | 78 | 175 | 1.0 | 5.0 | 0.00 | 0.00 | 0.00 | 45 | 1013.5 |
| 20260509144049 | 79 | 216 | 3.0 | 3.0 | 0.00 | 0.00 | 0.00 | 47 | 1013.5 |
| 20260509143551 | 79 | 220 | 5.0 | 7.0 | 0.00 | 0.00 | 0.00 | 47 | 1013.5 |
| 20260509143049 | 79 | 233 | 4.0 | 7.0 | 0.00 | 0.00 | 0.00 | 47 | 1013.6 |
| 20260509142551 | 78 | 112 | 3.0 | 5.0 | 0.00 | 0.00 | 0.00 | 48 | 1013.7 |
| 20260509142049 | 79 | 119 | 2.0 | 6.0 | 0.00 | 0.00 | 0.00 | 50 | 1013.7 |
| 20260509141548 | 79 | 185 | 1.0 | 3.0 | 0.00 | 0.00 | 0.00 | 50 | 1013.7 |
| 20260509135050 | 78 | 155 | 1.0 | 5.0 | 0.00 | 0.00 | 0.00 | 50 | 1014.1 |
| 20260509134550 | 79 | 117 | 1.0 | 5.0 | 0.00 | 0.00 | 0.00 | 51 | 1014.3 |
| 20260509134049 | 78 | 196 | 2.0 | 3.0 | 0.00 | 0.00 | 0.00 | 49 | 1014.3 |
| 20260509133549 | 78 | 281 | 5.0 | 7.0 | 0.00 | 0.00 | 0.00 | 52 | 1014.4 |
| 20260509133048 | 78 | 205 | 6.0 | 10.0 | 0.00 | 0.00 | 0.00 | 51 | 1014.5 |
| 20260509131549 | 79 | 228 | 3.0 | 7.0 | 0.00 | 0.00 | 0.00 | 48 | 1014.5 |
| 20260509131049 | 78 | 242 | 5.0 | 6.0 | 0.00 | 0.00 | 0.00 | 51 | 1014.6 |
| 20260509130550 | 77 | 225 | 1.0 | 7.0 | 0.00 | 0.00 | 0.00 | 52 | 1014.6 |
| 20260509130049 | 78 | 212 | 3.0 | 6.0 | 0.00 | 0.00 | 0.00 | 51 | 1014.7 |
| 20260509125049 | 77 | 124 | 3.0 | 10.0 | 0.00 | 0.00 | 0.00 | 53 | 1014.8 |
| 20260509124549 | 77 | 229 | 2.0 | 7.0 | 0.00 | 0.00 | 0.00 | 55 | 1014.9 |
| 20260509124049 | 77 | 268 | 3.0 | 5.0 | 0.00 | 0.00 | 0.00 | 55 | 1014.9 |
| 20260509123052 | 76 | 197 | 2.0 | 5.0 | 0.00 | 0.00 | 0.00 | 57 | 1015.0 |
| 20260509122549 | 77 | 217 | 2.0 | 5.0 | 0.00 | 0.00 | 0.00 | 54 | 1015.0 |
| 20260509122049 | 77 | 194 | 3.0 | 5.0 | 0.00 | 0.00 | 0.00 | 54 | 1015.0 |
| 20260509121548 | 77 | 192 | 5.0 | 7.0 | 0.00 | 0.00 | 0.00 | 56 | 1014.9 |
| 20260509121049 | 77 | 211 | 3.0 | 7.0 | 0.00 | 0.00 | 0.00 | 56 | 1015.0 |
| 20260509120549 | 77 | 207 | 2.0 | 6.0 | 0.00 | 0.00 | 0.00 | 55 | 1015.0 |
| 20260509120048 | 77 | 205 | 3.0 | 8.0 | 0.00 | 0.00 | 0.00 | 56 | 1014.9 |
| 20260509115049 | 77 | 192 | 3.0 | 5.0 | 0.00 | 0.00 | 0.00 | 56 | 1015.0 |
| 20260509114549 | 77 | 153 | 5.0 | 9.0 | 0.00 | 0.00 | 0.00 | 55 | 1015.0 |
| 20260509114049 | 77 | 200 | 4.0 | 6.0 | 0.00 | 0.00 | 0.00 | 56 | 1015.1 |
| 20260509113050 | 76 | 191 | 3.0 | 5.0 | 0.00 | 0.00 | 0.00 | 58 | 1015.2 |
| 20260509112100 | 76 | 250 | 3.0 | 5.0 | 0.00 | 0.00 | 0.00 | 56 | 1015.4 |
| 20260509111548 | 77 | 287 | 2.0 | 3.0 | 0.00 | 0.00 | 0.00 | 55 | 1015.5 |
| 20260509111048 | 76 | 0 | 3.0 | 6.0 | 0.00 | 0.00 | 0.00 | 58 | 1015.5 |
| 20260509110604 | 75 | 257 | 4.0 | 6.0 | 0.00 | 0.00 | 0.00 | 57 | 1015.5 |
| 20260509110048 | 76 | 239 | 3.0 | 6.0 | 0.00 | 0.00 | 0.00 | 58 | 1015.5 |
| 20260509105549 | 75 | 195 | 3.0 | 5.0 | 0.00 | 0.00 | 0.00 | 58 | 1015.6 |
| 20260509105048 | 75 | 330 | 4.0 | 6.0 | 0.00 | 0.00 | 0.00 | 59 | 1015.7 |
| 20260509104548 | 74 | 299 | 3.0 | 5.0 | 0.00 | 0.00 | 0.00 | 60 | 1015.8 |
| 20260509104055 | 74 | 308 | 2.0 | 6.0 | 0.00 | 0.00 | 0.00 | 58 | 1015.8 |
| 20260509103548 | 75 | 300 | 5.0 | 7.0 | 0.00 | 0.00 | 0.00 | 59 | 1015.9 |
| 20260509103048 | 74 | 239 | 2.0 | 7.0 | 0.00 | 0.00 | 0.00 | 63 | 1016.0 |
| 20260509102549 | 75 | 265 | 4.0 | 8.0 | 0.00 | 0.00 | 0.00 | 60 | 1016.1 |